Flag for Italy Weather past 2 weeks in Trieste, Italy

Now
54 °F

Fog.


Feels Like: 54 °F
Forecast: 42 / 58 °F
Wind: 1 mph from South

Location: Trieste

Current Time: Mar 27, 2015 at 9:35:15 AM

Latest Report: Mar 27, 2015 at 8:00 AM


Visibility: 2 mi

Pressure: 29.68 "Hg

Humidity: 89%

Dew point: 51 °F

Location of TriesteLocation

Historic Weather in Trieste — Graph

°F

Trieste temperature yesterday

Maximum temperature yesterday: 61 °F (at 12:00 PM)
Minimum temperature yesterday: 54 °F (at 11:00 PM)
Average temperature yesterday: 57 °F

Past Weeks' High & Low Weather Summary

 TemperatureHumidityPressure
High65 °F (Mar 23, 2:00 PM)94% (Mar 26, 7:00 PM)30.40 "Hg (Mar 26, 7:00 PM)
Low42 °F (Mar 21, 3:00 AM)4% (Mar 24, 2:00 AM)29.54 "Hg (Mar 25, 4:00 PM)
Average53 °F62%30.09 "Hg
* Reported Mar 12 8:00 AM — Mar 27 8:00 AM, Trieste, Weather by CustomWeather, © 2015

Note: Actual official high and low records may vary slightly from our data, if they occured in-between our weather recording intervals... More about our weather records

Advertising

Trieste weather history for previous 24 hours

 ConditionsComfort  
Time TempWeatherWind HumidityBarometerVisibility
8:00 AM
Fri, Mar 27
54 °FFog.1 mph89%29.68 "Hg2 mi
7:00 AM53 °FFog.1 mph92%29.68 "Hg1 mi
6:00 AM53 °FFog.No wind92%29.68 "Hg2 mi
5:00 AM53 °FFog.No wind93%29.68 "Hg1 mi
3:00 AM53 °FFog.1 mph94%29.70 "Hg2 mi
2:00 AM53 °FFog.No wind93%29.72 "Hg2 mi
1:00 AM54 °FFog.No wind93%29.74 "Hg2 mi
12:00 AM54 °FOvercast.No wind93%29.75 "Hg6 mi
11:00 PM
Thu, Mar 26
54 °FOvercast.No wind93%29.75 "Hg6 mi
9:00 PM54 °FOvercast.No wind92%29.76 "Hg6 mi
8:00 PM55 °FLight rain. Overcast.1 mph93%29.76 "Hg2 mi
7:00 PM54 °FOvercast.2 mph94%29.73 "Hg6 mi
6:00 PM55 °FLight rain. Overcast.1 mph93%29.72 "Hg2 mi
5:00 PM58 °FOvercast.1 mph89%29.72 "Hg6 mi
4:00 PM57 °FLight rain. Overcast.No wind88%29.72 "Hg6 mi
3:00 PM57 °FThunderstorms. Overcast.1 mph85%29.72 "Hg6 mi
2:00 PM59 °FOvercast.1 mph80%29.72 "Hg6 mi
1:00 PM56 °FThunderstorms. Overcast.5 mph87%29.72 "Hg6 mi
12:00 PM61 °FOvercast.No wind77%29.72 "Hg6 mi
11:00 AM60 °FOvercast.1 mph80%29.72 "Hg6 mi
10:00 AM57 °FLight rain. Overcast.5 mph84%29.71 "Hg6 mi
9:00 AM57 °FLight rain. Overcast.5 mph83%29.69 "Hg6 mi
Weather by CustomWeather, © 2015

See weather overviewHow to use our weather pages